TimeMST,TemperatureF,Dew PointF,Humidity,Sea Level PressureIn,VisibilityMPH,Wind Direction,Wind SpeedMPH,Gust SpeedMPH,PrecipitationIn,Events,Conditions,WindDirDegrees,DateUTC
12:15 AM,8.6,-0.4,67,30.28,10.0,Calm,Calm,-,N/A,,Clear,0,2013-01-04 07:15:00
12:35 AM,8.6,-0.4,67,30.27,10.0,North,8.1,-,N/A,,Clear,360,2013-01-04 07:35:00
12:55 AM,8.6,-0.4,67,30.27,10.0,Calm,Calm,-,N/A,,Clear,0,2013-01-04 07:55:00
1:35 AM,8.6,-0.4,67,30.27,10.0,North,6.9,-,N/A,,Clear,360,2013-01-04 08:35:00
1:55 AM,8.6,-0.4,67,30.27,10.0,North,8.1,-,N/A,,Clear,10,2013-01-04 08:55:00
2:15 AM,12.2,-0.4,57,30.28,10.0,North,11.5,-,N/A,,Clear,10,2013-01-04 09:15:00
6:50 AM,6.8,-0.4,72,30.27,10.0,North,9.2,-,N/A,,Clear,360,2013-01-04 13:50:00
7:50 AM,5.0,-2.2,72,30.29,10.0,Variable,5.8,-,N/A,,Clear,0,2013-01-04 14:50:00
8:49 AM,14.0,-0.4,53,30.30,10.0,North,11.5,-,N/A,,Clear,360,2013-01-04 15:49:00
9:50 AM,17.6,-0.4,45,30.30,10.0,North,8.1,-,N/A,,Clear,10,2013-01-04 16:50:00
10:50 AM,21.2,-0.4,39,30.29,10.0,NNE,9.2,-,N/A,,Partly Cloudy,30,2013-01-04 17:50:00
11:50 AM,24.8,-0.4,34,30.25,10.0,Calm,Calm,-,N/A,,Partly Cloudy,0,2013-01-04 18:50:00
12:50 PM,26.6,1.4,34,30.21,10.0,Calm,Calm,-,N/A,,Partly Cloudy,0,2013-01-04 19:50:00
1:50 PM,28.4,1.4,31,30.18,10.0,Variable,6.9,-,N/A,,Partly Cloudy,0,2013-01-04 20:50:00
2:50 PM,30.2,1.4,29,30.17,10.0,NW,6.9,-,N/A,,Partly Cloudy,320,2013-01-04 21:50:00
3:47 PM,30.2,1.4,29,30.16,10.0,Variable,6.9,-,N/A,,Partly Cloudy,0,2013-01-04 22:47:00
4:50 PM,28.4,1.4,31,30.16,10.0,Calm,Calm,-,N/A,,Clear,0,2013-01-04 23:50:00
5:50 PM,23.0,-0.4,36,30.17,10.0,NNW,9.2,-,N/A,,Clear,330,2013-01-05 00:50:00
9:15 PM,14.0,-4.0,45,30.21,10.0,NNW,6.9,-,N/A,,Clear,330,2013-01-05 04:15:00
9:35 PM,14.0,-4.0,45,30.21,10.0,NNW,6.9,-,N/A,,Clear,340,2013-01-05 04:35:00
9:55 PM,14.0,-4.0,45,30.21,10.0,NW,6.9,-,N/A,,Clear,320,2013-01-05 04:55:00
10:15 PM,10.4,-5.8,48,30.22,10.0,NNW,9.2,-,N/A,,Clear,330,2013-01-05 05:15:00
10:35 PM,15.8,-2.2,45,30.22,10.0,NNW,6.9,-,N/A,,Clear,330,2013-01-05 05:35:00
10:55 PM,12.2,-4.0,48,30.22,10.0,NNW,8.1,-,N/A,,Clear,330,2013-01-05 05:55:00
11:15 PM,14.0,-2.2,49,30.22,10.0,NNW,10.4,-,N/A,,Clear,340,2013-01-05 06:15:00
11:35 PM,15.8,-2.2,45,30.22,10.0,NNW,10.4,-,N/A,,Clear,340,2013-01-05 06:35:00
11:55 PM,15.8,-2.2,45,30.22,10.0,NNW,10.4,-,N/A,,Clear,340,2013-01-05 06:55:00